Weather in Sarafonovo

Russia / Yaroslavl Oblast     57°39′42″N   39°41′01″E
temp.,
°C
wind,
m/s
gust,
m/s
humid.,
%
clouds,
%
prec.,
mm/h
press.,
hPa
HPBL,
m
14 may, fri
fri1400:00+11s369565 0.0 1016128
03:00+10s3992100 0.0 1018193
06:00+10s36925 0.0 1018205
09:00+15s457429 0.0 1018637
12:00+18s4665100 0.0 10181248
15:00+19s466471 0.8 10171221
18:00+19se257489 0.6 1016628
21:00+14sse399468 3.0 1015282
15 may, sat
sat1500:00+13ssw51197100 3.4 1015420
03:00+13ese41097100 7.6 1013312
06:00+14se41296100 0.7 1012412
09:00+19sse51079100 0.7 1011485
12:00+21sse5971100 0.0 1010705
15:00+21s81174100 2.9 10081244
18:00+17s51186100 5.1 1008553
21:00+15s4109526 5.7 1008210
16 may, sun
sun1600:00+13s410940 0.1 1009198
03:00+12s411952 0.1 1009233
06:00+13ssw5119416 0.0 1010370
09:00+17ssw610786 0.0 1010811
12:00+19ssw6970100 0.2 10101462
15:00+19sw7107526 2.3 10101228
18:00+18sw610816 1.6 1010891
21:00+14ssw49925 1.6 1011197
17 may, mon
mon1700:00+12ssw39955 0.0 1012200
03:00+12sw37961 0.0 1013141
06:00+13ssw37942 0.0 1014201
09:00+18sw46787 0.0 1015621
12:00+21ssw456118 0.0 10151263
15:00+22s335883 0.0 10151298
18:00+22se136530 0.0 1014951
21:00+17e358043 0.0 101362
18 may, tue
tue1800:00+15ese399199 0.4 1013159
03:00+14e48947 0.4 1012150
06:00+15ese49915 0.0 1012223
09:00+21se597215 0.0 1011446
12:00+25se7105859 0.0 1010923
15:00+26se6105594 0.0 10091575
18:00+24se5116554 0.0 1009373
21:00+19se41477100 0.0 1009287